Tracking 19562 objects as of 24-Mar-2019
HD Live streaming from Space Station
objects crossing your sky now

USA 188

Track USA 188 now!
USA 188 is classified as:


NORAD ID: 29241
Int'l Code: 2006-024B
Perigee: 36,163.9 km
Apogee: 36,225.5 km
Inclination: 7.0 °
Period: 1,456.6 minutes
Semi major axis: 42565 km
RCS: Unknown
Launch date: June 21, 2006
Source: United States (US)
Launch site: AIR FORCE EASTERN TEST RANGE (AFETR)
aabbcc
Your satellite tracking list
Your tracking list is empty




NASA's NSSDC Master Catalog

Two Line Element Set (TLE):
1 29241U 06024B   19056.60451094 0.00000000  00000-0  00000-0 0    03
2 29241   6.9770  54.9597 0007233  85.3256 274.7690  0.98858465    00
Source of the keplerian elements: McCants